sat.trackr.live / text

‹ back to catalog

STARLINK-33675

NORAD 63423 · 2025-065AA

PAYLOAD ACTIVE UNKNOWN

§ Identity

Operator
Country
US
Launch date
2025-03-31
Launch site
AFETR
Launch vehicle
Mass (kg)
RCS (m²)

Purposes: comms

External: N2YO · Heavens-Above · Gunter

§ Orbital elements

Epoch: 2026-09-20T05:06:56.073600Z

Period
94.27 min
Inclination
43.0027°
Eccentricity
0.0001383
Mean motion
15.27588022 rev/d
Perigee alt
482.1 km
Apogee alt
484.0 km
Semi-major
6,861.2 km
B*
2.8189e-4
RAAN
88.1174°
Arg perigee
275.2844°
Mean anomaly
84.7850°
Rev number
8,259

§ Raw data

STARLINK-336751 63423U 25065AA  26263.21314900  .00007505  00000+0  28189-3 0  99922 63423  43.0027  88.1174 0001383 275.2844  84.7850 15.27588022 82598

JSON: /api/v1/satellites/63423 · /tle

For live sub-satellite position, see the globe view (requires WebGL).

§ Visibility from observer

Set your observer location to see the next 7 days of passes ≥ 10°. The values pass through the URL so the page stays shareable.

No JS? Fill the form by hand. The geolocation button needs JavaScript.